Station: Robe Airport  

  Atmospheric Gas Attenuation - ITU Rec 676-11   ----------------- dB/100km -----------------
Date Time Temp RH % AH g/m3 Dew Point Wind Direction Speed kph Gust kph Barometer mB Rainfall Since 9am 24GHz 47GHz 76GHz 122GHz 134GHz 241GHz
09/05 07:40 13.6 95 11.18 12.9 7 9 1029.7 2.2 25.1 31.0 51.6 135.8 136.2 470.4
09/05 07:30 13.5 96 11.23 12.9 7 9 1029.6 2.2 25.2 31.1 51.9 136.6 137.1 473.5
09/05 07:20 13.5 95 11.11 12.8 7 9 1029.6 2.2 25.0 30.9 51.4 135.1 135.3 467.4
09/05 07:10 13.4 95 11.04 12.7 9 11 1029.6 2.2 24.8 30.8 51.2 134.5 134.5 464.4
09/05 07:00 13.4 96 11.16 12.8 9 15 1029.5 2 25.1 31.0 51.7 135.9 136.2 470.5
09/05 06:50 13.2 95 10.91 12.4 9 11 1029.4 1.8 24.5 30.7 50.7 133.3 132.9 458.9
09/05 06:40 13.4 95 11.04 12.6 9 11 1029.4 1.8 24.8 30.8 51.1 134.5 134.5 464.3
09/05 06:30 13.4 96 11.16 12.8 7 13 1029.3 1.6 25.1 31.0 51.7 135.9 136.2 470.4
09/05 06:20 13.1 95 10.84 12.3 6 6 1029.3 1.4 24.4 30.6 50.4 132.6 132.1 455.9
09/05 06:10 13.2 95 10.91 12.4 6 7 1029.1 1.4 24.5 30.6 50.7 133.2 132.9 458.8
09/05 06:00 13.2 95 10.91 12.4 7 13 1029.2 1.4 24.5 30.6 50.7 133.2 132.9 458.8
09/05 05:50 13.1 95 10.84 12.3 6 6 1029.1 1.4 24.4 30.6 50.4 132.6 132.0 455.8
09/05 05:40 13.1 95 10.84 12.3 7 9 1029.1 1.4 24.4 30.6 50.4 132.6 132.0 455.8
09/05 05:30 13.1 95 10.84 12.3 6 7 1029 1.4 24.4 30.5 50.4 132.6 132.0 455.8
09/05 05:20 13.1 95 10.84 12.3 4 4 1029 1.4 24.4 30.5 50.4 132.6 132.0 455.8
09/05 05:10 13.1 95 10.84 12.3 6 6 1028.9 1.2 24.4 30.5 50.4 132.5 132.0 455.7
09/05 05:00 13.2 94 10.79 12.3 9 17 1028.8 1 24.3 30.4 50.1 131.8 131.1 452.6
09/05 04:50 13.5 94 11 12.5 17 19 1028.8 0.8 24.7 30.7 50.9 133.7 133.6 461.5
09/05 04:40 13.4 94 10.93 12.4 9 11 1028.7 0.8 24.6 30.6 50.6 133.1 132.8 458.5
09/05 04:30 13.4 94 10.93 12.5 9 15 1028.6 0.8 24.6 30.6 50.6 133.1 132.8 458.4
09/05 04:20 13.3 94 10.86 12.3 7 9 1028.5 0.8 24.4 30.5 50.4 132.4 131.9 455.4
09/05 04:10 13.5 94 11 12.5 11 13 1028.5 0.8 24.7 30.7 50.8 133.7 133.6 461.4
09/05 04:00 13.3 94 10.86 12.4 9 11 1028.4 0.8 24.4 30.5 50.4 132.4 131.9 455.4
09/05 03:50 13.1 94 10.73 12.1 9 11 1028.4 0.8 24.2 30.3 49.9 131.2 130.4 450.0
09/05 03:40 13.3 94 10.86 12.3 9 11 1028.4 0.8 24.4 30.5 50.4 132.4 131.9 455.4
09/05 03:30 13.3 94 10.86 12.4 7 9 1028.4 0.8 24.4 30.5 50.4 132.4 131.9 455.4
09/05 03:20 13.2 94 10.79 12.2 7 7 1028.4 0.8 24.3 30.4 50.1 131.7 131.1 452.4
09/05 03:10 13.2 95 10.91 12.4 4 4 1028.5 0.8 24.5 30.6 50.6 133.2 132.8 458.6
09/05 03:00 13.2 95 10.91 12.4 6 7 1028.6 0.8 24.5 30.6 50.7 133.2 132.8 458.6
09/05 02:50 13.2 95 10.91 12.4 7 7 1028.5 0.8 24.5 30.6 50.6 133.2 132.8 458.6
09/05 02:40 13.1 95 10.84 12.3 7 9 1028.5 0.8 24.4 30.5 50.4 132.5 132.0 455.6
09/05 02:30 13 94 10.66 12.1 4 6 1028.5 0.8 24.0 30.2 49.7 130.5 129.5 447.0
09/05 02:20 13 94 10.66 12 4 4 1028.6 0.8 24.0 30.2 49.7 130.6 129.5 447.1
09/05 02:10 13 94 10.66 12 6 6 1028.7 0.8 24.0 30.2 49.7 130.6 129.5 447.1
09/05 02:00 13.1 94 10.73 12.2 6 7 1028.7 0.8 24.2 30.3 49.9 131.2 130.4 450.1
09/05 01:50 13.1 94 10.73 12.1 7 7 1028.7 0.8 24.2 30.3 49.9 131.2 130.4 450.1
09/05 01:40 13.1 94 10.73 12.1 7 9 1028.7 0.8 24.2 30.3 49.9 131.2 130.4 450.1
09/05 01:30 12.8 94 10.53 11.9 9 11 1028.8 0.6 23.8 30.1 49.2 129.4 128.0 441.7
09/05 01:20 12.8 94 10.53 11.8 9 11 1028.9 0.6 23.8 30.1 49.2 129.4 128.0 441.8
09/05 01:10 12.8 94 10.53 11.8 7 7 1028.9 0.6 23.8 30.1 49.2 129.4 128.0 441.8
09/05 01:00 12.5 94 10.34 11.6 7 13 1028.8 0.6 23.4 29.9 48.6 127.7 125.8 433.8
09/05 00:50 12.4 93 10.16 11.3 6 6 1028.8 0.6 23.0 29.6 47.9 125.7 123.3 425.3
09/05 00:40 12.5 93 10.23 11.4 7 9 1028.9 0.6 23.1 29.7 48.1 126.4 124.2 428.3
09/05 00:30 12.7 93 10.35 11.6 9 13 1028.9 0.6 23.4 29.8 48.5 127.5 125.6 433.2
09/05 00:20 12.6 93 10.29 11.5 9 11 1028.9 0.6 23.3 29.7 48.3 126.9 124.9 430.8
09/05 00:10 12.4 92 10.05 11.1 7 7 1028.8 0.6 22.7 29.4 47.4 124.4 121.7 419.8
09/05 00:00 12.5 92 10.12 11.2 7 9 1028.7 0.6 22.9 29.5 47.6 125.1 122.6 422.7
08/05 23:50 12.7 92 10.24 11.4 7 9 1028.7 0.6 23.1 29.6 48.0 126.1 124.0 427.6
08/05 23:40 12.9 92 10.37 11.6 9 11 1028.8 0.6 23.4 29.8 48.5 127.3 125.5 433.1
08/05 23:30 13.3 92 10.63 12 13 20 1028.8 0.6 23.9 30.1 49.4 129.7 128.6 443.9
08/05 23:20 13.2 92 10.56 11.9 9 11 1028.8 0.6 23.8 30.0 49.1 129.1 127.8 440.9
08/05 23:10 12.8 92 10.31 11.5 11 13 1028.9 0.6 23.3 29.7 48.3 126.8 124.8 430.7
08/05 23:00 13.2 92 10.56 11.9 15 19 1029 0.6 23.8 30.0 49.1 129.1 127.8 441.0
08/05 22:50 13.2 92 10.56 11.9 15 19 1029 0.6 23.8 30.0 49.1 129.1 127.8 441.0
08/05 22:40 13.5 92 10.76 12.2 15 19 1029.1 0.6 24.2 30.3 49.8 130.9 130.2 449.4
08/05 22:30 13.6 92 10.83 12.3 13 20 1029.2 0.6 24.4 30.4 50.1 131.6 131.0 452.4
08/05 22:20 13.9 91 10.91 12.4 11 15 1029.2 0.6 24.5 30.4 50.2 132.0 131.7 454.7
08/05 22:10 13.6 91 10.71 12.1 11 13 1029.2 0.6 24.1 30.1 49.5 130.2 129.3 446.3
08/05 22:00 13.7 91 10.78 12.3 13 22 1029.2 0.6 24.2 30.2 49.8 130.9 130.1 449.3
08/05 21:50 13.6 91 10.71 12.1 13 15 1029.1 0.6 24.1 30.1 49.5 130.2 129.3 446.3
08/05 21:40 13.6 92 10.83 12.3 13 15 1029.2 0.6 24.4 30.4 50.1 131.6 131.0 452.4
08/05 21:30 13.8 92 10.96 12.5 17 28 1029.1 0.6 24.6 30.5 50.5 132.8 132.6 457.7
08/05 21:20 13.8 92 10.96 12.5 13 15 1029.1 0.6 24.6 30.5 50.5 132.8 132.6 457.7
08/05 21:10 13.8 92 10.96 12.6 15 19 1029 0.6 24.6 30.5 50.5 132.8 132.5 457.7
08/05 21:00 13.8 93 11.08 12.7 13 19 1029 0.6 24.9 30.7 51.0 134.2 134.3 463.8
08/05 20:50 13.8 92 10.96 12.6 13 17 1029.1 0.6 24.6 30.5 50.5 132.8 132.6 457.7
08/05 20:40 13.7 92 10.89 12.4 15 17 1029 0.6 24.5 30.4 50.3 132.1 131.7 454.8
08/05 20:30 14 92 11.1 12.7 15 22 1029 0.6 24.9 30.7 51.0 134.1 134.2 463.6
08/05 20:20 13.9 92 11.03 12.6 19 24 1029 0.6 24.8 30.6 50.7 133.4 133.4 460.7
08/05 20:10 13.8 92 10.96 12.6 13 15 1029 0.6 24.6 30.5 50.5 132.8 132.5 457.7
08/05 20:00 13.6 93 10.95 12.5 15 20 1028.9 0.6 24.6 30.6 50.6 133.0 132.7 458.4
08/05 19:50 13.7 92 10.89 12.5 15 19 1029 0.6 24.5 30.4 50.3 132.1 131.7 454.8
08/05 19:40 13.7 92 10.89 12.5 19 19 1028.9 0.4 24.5 30.4 50.3 132.1 131.7 454.7
08/05 19:30 13.8 93 11.08 12.7 17 24 1028.9 0.4 24.9 30.7 51.0 134.2 134.3 463.8
08/05 19:20 13.7 92 10.89 12.5 20 28 1028.8 0.4 24.5 30.4 50.2 132.1 131.7 454.7
08/05 19:10 13.8 92 10.96 12.6 19 26 1028.8 0.4 24.6 30.5 50.5 132.8 132.5 457.6
08/05 19:00 13.9 93 11.15 12.8 17 22 1028.7 0.4 25.0 30.8 51.3 134.8 135.1 466.6
08/05 18:50 13.9 92 11.03 12.7 15 15 1028.7 0.4 24.8 30.6 50.7 133.4 133.4 460.6
08/05 18:40 13.9 92 11.03 12.7 11 11 1028.7 0.4 24.8 30.6 50.7 133.4 133.4 460.6
08/05 18:30 13.9 93 11.15 12.8 11 17 1028.7 0.4 25.0 30.8 51.3 134.8 135.1 466.6
08/05 18:20 13.6 93 10.95 12.5 17 20 1028.7 0.2 24.6 30.6 50.6 133.0 132.7 458.3
08/05 18:10 13.8 92 10.96 12.6 11 13 1028.6 0.2 24.6 30.5 50.5 132.7 132.5 457.6
08/05 18:00 13.7 93 11.01 12.6 9 11 1028.5 0.2 24.7 30.6 50.8 133.5 133.4 460.7
08/05 17:50 13.7 92 10.89 12.5 11 11 1028.6 0.2 24.5 30.4 50.2 132.1 131.7 454.6
08/05 17:40 13.7 92 10.89 12.4 9 11 1028.5 0.2 24.5 30.4 50.2 132.1 131.7 454.6
08/05 17:30 13.9 91 10.91 12.5 20 28 1028.5 0.2 24.5 30.4 50.2 132.0 131.6 454.4
08/05 17:20 13.8 92 10.96 12.5 13 17 1028.4 0.2 24.6 30.5 50.5 132.7 132.5 457.5
08/05 17:10 13.7 91 10.78 12.2 9 13 1028.3 0.2 24.2 30.2 49.7 130.7 130.0 449.0
08/05 17:00 13.8 91 10.84 12.4 19 28 1028.3 0.2 24.4 30.3 49.9 131.3 130.7 451.4
08/05 16:50 14 89 10.74 12.3 13 15 1028.2 0.2 24.1 30.0 49.4 129.8 129.0 445.2
08/05 16:40 13.9 89 10.67 12.1 15 19 1028.2 0.2 24.0 29.9 49.1 129.1 128.1 442.3
08/05 16:30 14.4 87 10.75 12.3 24 35 1028.2 0.2 24.1 29.9 49.2 129.2 128.4 443.4
08/05 16:20 14.3 88 10.81 12.3 19 26 1028.2 0.2 24.3 30.0 49.5 130.1 129.4 447.0
08/05 16:10 14 89 10.74 12.2 15 17 1028.2 0.2 24.1 30.0 49.4 129.8 129.0 445.2
08/05 16:00 14.1 89 10.8 12.3 20 32 1028.3 0.2 24.3 30.1 49.6 130.3 129.7 447.6
08/05 15:50 14.6 85 10.64 12.1 28 33 1028.1 0.2 23.9 29.6 48.6 127.6 126.5 436.8
08/05 15:40 14.5 85 10.57 12.1 13 15 1028.1 0.2 23.7 29.6 48.3 127.0 125.7 433.8
08/05 15:30 14.6 86 10.76 12.3 19 30 1028.1 0.2 24.1 29.8 49.1 129.0 128.2 442.7
08/05 15:20 15.3 79 10.32 11.8 17 20 1027.9 0 23.2 28.8 46.7 122.8 120.9 417.2
08/05 15:10 15.2 78 10.12 11.5 19 24 1027.9 0 22.7 28.5 46.0 120.7 118.3 408.0

Last Refresh: 09-May-2026 07:51:04

Bureau of Meteorology